Weather History for Jackson, TN

Change the Weather History Date:

Tuesday, February 19, 2013

  Actual Average Record
Temperature  
Mean Temperature 40 °F 43 °F  
Max Temperature 49 °F 54 °F 73 °F (1994)
Min Temperature 30 °F 33 °F 5 °F (1958)
Degree Days  
Heating Degree Days 25 22  
Month to date heating degree days 413 454  
Since 1 July heating degree days 2482 2703  
Cooling Degree Days 0 0  
Month to date cooling degree days 0 0  
Year to date cooling degree days 4 0  
Moisture  
Dew Point 28 °F    
Average Humidity 61    
Maximum Humidity 83    
Minimum Humidity 38    
Precipitation  
Precipitation 0.00 in 0.15 in 1.71 in (1996)
Month to date precipitation 2.43 2.85  
Year to date precipitation 10.72 6.92  
Snow  
Snow 0.00 in 0.10 in 0.60 in (1963)
Month to date snowfall 0.1 1.3  
Since 1 July snowfall 1.4 3.9  
Snow Depth 0.00 in    
Sea Level Pressure  
Sea Level Pressure 30.14 in    
Wind  
Wind Speed 11 mph (WNW)    
Max Wind Speed 25 mph    
Max Gust Speed 31 mph    
Visibility 10 miles    
Events      
T = Trace of Precipitation, MM = Missing Value Source: NWS Daily Summary

Daily Weather History Graph

Daily Weather History Graph

Search for Another Location

Airport:

Trip Planner

Search our weather history database for the weather conditions in past years. The results will help you decide how hot, cold, wet, or windy it might be!

Date:

Astronomy

Feb. 19, 2013 Rise Set
Actual Time 6:37 AM CST 5:41 PM CST
Civil Twilight 6:11 AM CST 6:07 PM CST
Nautical Twilight 5:41 AM CST 6:37 PM CST
Astronomical Twilight 5:12 AM CST 7:07 PM CST
Moon 12:19 PM CST (2/19) 2:03 AM CST (2/19)
Length of Visible Light 11h 56m
Length of Day
11h 04m
Waxing Gibbous, 67% of the Moon is Illuminated
Feb 19
Waxing Gibbous
Feb 25
Full
Mar 4
Last Quarter
Mar 11
New
Mar 19
First Quarter

Hourly Weather History & Observations

Time (CST) Temp. Windchill Dew Point Humidity Pressure Visibility Wind Dir Wind Speed Gust Speed Precip Events Conditions
12:34 AM 46.4 °F 40.7 °F 41.0 °F 81% 29.95 in 10.0 mi WNW 12.7 mph 21.9 mph N/A   Overcast
12:53 AM 46.0 °F 39.3 °F 39.0 °F 76% 29.96 in 10.0 mi NW 16.1 mph 23.0 mph N/A   Overcast
1:26 AM 46.4 °F 40.7 °F 39.2 °F 76% 29.98 in 10.0 mi NW 12.7 mph 19.6 mph N/A   Overcast
1:53 AM 45.0 °F 41.2 °F 39.0 °F 80% 29.99 in 10.0 mi NW 6.9 mph - N/A   Overcast
2:53 AM 44.1 °F 39.0 °F 36.0 °F 73% 30.00 in 10.0 mi NW 9.2 mph 21.9 mph N/A   Overcast
3:09 AM 42.8 °F 35.1 °F 33.8 °F 70% 30.01 in 10.0 mi WNW 16.1 mph 21.9 mph N/A   Overcast
3:53 AM 42.1 °F 33.3 °F 34.0 °F 73% 30.03 in 10.0 mi NW 19.6 mph 25.3 mph N/A   Overcast
4:53 AM 37.9 °F 30.9 °F 30.0 °F 73% 30.07 in 10.0 mi WNW 10.4 mph - N/A   Clear
5:53 AM 36.0 °F 29.0 °F 28.9 °F 76% 30.11 in 10.0 mi WNW 9.2 mph - N/A   Clear
6:53 AM 35.1 °F 28.6 °F 27.0 °F 72% 30.14 in 10.0 mi WNW 8.1 mph - N/A   Clear
7:53 AM 36.0 °F 27.5 °F 26.1 °F 67% 30.17 in 10.0 mi WNW 12.7 mph 18.4 mph N/A   Clear
8:53 AM 37.9 °F 29.2 °F 23.0 °F 55% 30.19 in 10.0 mi NW 15.0 mph - N/A   Clear
9:53 AM 39.9 °F 32.5 °F 23.0 °F 51% 30.20 in 10.0 mi WNW 12.7 mph - N/A   Clear
12:53 PM 46.0 °F 39.0 °F 23.0 °F 40% 30.20 in 10.0 mi WNW 17.3 mph 27.6 mph N/A   Clear
1:53 PM 46.9 °F - 25.0 °F 42% 30.20 in 10.0 mi WNW 13.8 mph 21.9 mph N/A   Clear
2:53 PM 46.9 °F - 24.1 °F 41% 30.21 in 10.0 mi NW 15.0 mph 23.0 mph N/A   Clear
3:53 PM 46.0 °F 40.2 °F 23.0 °F 40% 30.22 in 10.0 mi West 12.7 mph - N/A   Clear
4:53 PM 45.0 °F 39.3 °F 23.0 °F 42% 30.23 in 10.0 mi West 11.5 mph - N/A   Clear
6:53 PM 37.9 °F 34.4 °F 23.0 °F 55% 30.23 in 10.0 mi WSW 4.6 mph - N/A   Clear
7:53 PM 35.1 °F 31.0 °F 21.9 °F 59% 30.24 in 10.0 mi SW 4.6 mph - N/A   Clear
8:53 PM 32.0 °F 27.5 °F 23.0 °F 69% 30.26 in 10.0 mi WSW 4.6 mph - N/A   Clear
9:53 PM 33.1 °F 26.9 °F 21.9 °F 64% 30.26 in 10.0 mi West 6.9 mph - N/A   Clear
10:53 PM 35.1 °F 30.1 °F 19.9 °F 54% 30.27 in 10.0 mi WNW 5.8 mph - N/A   Clear
11:53 PM 30.0 °F 26.5 °F 19.9 °F 66% 30.28 in 10.0 mi NNW 3.5 mph - N/A   Clear